GFSSW_500_temp_132.txt.gz
Temp
-11 -11 -11 -11 -11 -11 -11 -11 -11 -11 -11 -11 -11 -11 -11 -11 -11 -11 -11 -11 -10 -10 -10 -10 -10 -9 -9 -9 -10 -10 -9 -10 -11 -11 -10 -9 -10 -9 -10 -10 -10 -10 -9 -9 -9
-11 -11 -11 -11 -11 -11 -11 -11 -11 -11 -11 -12 -12 -11 -11 -12 -11 -11 -11 -11 -11 -11 -11 -11 -10 -10 -10 -10 -10 -10 -10 -10 -11 -11 -11 -11 -11 -10 -10 -10 -10 -10 -9 -9 -9
-12 -12 -11 -11 -11 -11 -12 -11 -11 -12 -12 -12 -12 -12 -12 -12 -11 -11 -12 -11 -12 -11 -11 -11 -11 -11 -11 -11 -11 -10 -10 -10 -11 -11 -11 -11 -11 -10 -10 -11 -10 -10 -9 -10 -10
-12 -12 -12 -12 -12 -12 -12 -12 -12 -12 -12 -12 -12 -12 -12 -12 -11 -11 -12 -12 -12 -12 -12 -12 -11 -11 -11 -11 -11 -11 -10 -11 -11 -11 -11 -11 -11 -11 -11 -11 -11 -10 -10 -10 -10
-13 -12 -12 -12 -12 -12 -12 -12 -12 -12 -12 -13 -13 -13 -13 -12 -12 -12 -12 -12 -12 -12 -12 -12 -12 -12 -12 -12 -11 -11 -11 -11 -11 -11 -11 -11 -11 -11 -11 -11 -11 -11 -11 -10 -11
-13 -13 -13 -13 -13 -13 -13 -13 -13 -13 -13 -13 -13 -14 -13 -12 -13 -12 -12 -13 -13 -13 -13 -13 -13 -12 -12 -12 -12 -12 -11 -12 -12 -12 -12 -11 -11 -12 -11 -11 -11 -11 -11 -11 -10
-14 -13 -13 -13 -14 -14 -14 -14 -14 -14 -14 -14 -14 -14 -14 -12 -13 -13 -12 -13 -13 -13 -13 -13 -13 -13 -13 -13 -12 -12 -12 -12 -12 -12 -12 -12 -11 -11 -12 -12 -11 -11 -11 -11 -11
-14 -14 -14 -14 -14 -14 -14 -15 -15 -15 -15 -15 -15 -15 -13 -13 -14 -14 -13 -13 -14 -14 -14 -14 -14 -13 -13 -13 -13 -13 -13 -12 -12 -12 -12 -12 -11 -11 -12 -12 -12 -12 -11 -11 -11
-15 -15 -15 -15 -15 -15 -15 -15 -16 -16 -17 -17 -16 -15 -14 -14 -14 -14 -14 -14 -15 -15 -15 -15 -15 -15 -14 -14 -13 -14 -13 -13 -13 -13 -13 -13 -12 -11 -12 -12 -12 -12 -11 -11 -11
-16 -16 -16 -16 -16 -16 -16 -17 -17 -18 -18 -18 -17 -16 -14 -14 -15 -16 -15 -15 -16 -16 -15 -15 -15 -15 -14 -14 -14 -14 -14 -14 -14 -14 -14 -13 -12 -12 -12 -13 -12 -12 -11 -12 -11
-17 -17 -17 -17 -18 -18 -18 -18 -18 -18 -18 -17 -17 -15 -16 -16 -17 -16 -16 -16 -17 -17 -16 -16 -16 -14 -14 -15 -15 -15 -15 -15 -14 -15 -14 -13 -13 -13 -13 -12 -13 -12 -12 -13 -12
-18 -19 -18 -18 -19 -19 -19 -19 -18 -19 -19 -19 -20 -19 -19 -18 -18 -17 -17 -17 -17 -17 -17 -17 -16 -15 -17 -16 -16 -16 -16 -15 -15 -16 -15 -14 -13 -13 -13 -12 -13 -13 -12 -13 -13
-18 -19 -19 -19 -19 -19 -19 -18 -20 -20 -21 -21 -20 -20 -19 -19 -18 -18 -18 -18 -18 -18 -17 -17 -16 -17 -17 -17 -17 -16 -16 -15 -16 -16 -15 -14 -14 -13 -13 -13 -13 -13 -12 -12 -13
-19 -19 -19 -19 -19 -19 -18 -19 -20 -21 -22 -21 -20 -20 -20 -20 -19 -19 -19 -19 -19 -18 -18 -18 -18 -18 -18 -17 -17 -17 -16 -16 -16 -17 -16 -16 -14 -14 -14 -13 -13 -13 -13 -13 -14
-19 -19 -19 -19 -19 -19 -19 -20 -21 -22 -23 -22 -21 -20 -21 -21 -20 -19 -19 -19 -19 -18 -19 -18 -18 -18 -17 -17 -18 -16 -17 -17 -17 -17 -17 -16 -16 -14 -14 -13 -13 -13 -13 -14 -14
-21 -20 -20 -21 -20 -19 -20 -21 -22 -24 -24 -22 -21 -20 -21 -20 -21 -20 -20 -20 -19 -20 -20 -20 -19 -19 -18 -18 -18 -18 -17 -18 -18 -18 -18 -15 -17 -14 -14 -14 -14 -14 -13 -14 -14
-24 -24 -23 -23 -21 -22 -22 -23 -25 -25 -23 -22 -22 -21 -20 -20 -21 -21 -20 -20 -20 -19 -19 -20 -19 -19 -19 -18 -18 -18 -18 -18 -18 -18 -17 -16 -17 -14 -14 -14 -14 -14 -15 -16 -15
-28 -28 -27 -26 -25 -25 -25 -26 -25 -25 -24 -23 -21 -21 -21 -20 -21 -21 -20 -20 -20 -19 -20 -20 -19 -19 -19 -18 -18 -18 -18 -18 -18 -17 -16 -17 -17 -15 -15 -15 -16 -15 -16 -16 -15
-28 -28 -28 -27 -27 -27 -27 -27 -25 -24 -24 -23 -22 -22 -21 -22 -21 -21 -21 -20 -20 -20 -19 -19 -20 -19 -19 -19 -19 -18 -18 -18 -18 -18 -18 -17 -17 -16 -16 -16 -16 -16 -16 -17 -16
-29 -28 -28 -28 -27 -27 -27 -27 -26 -25 -24 -25 -23 -22 -21 -21 -22 -21 -21 -20 -20 -20 -20 -20 -20 -20 -19 -19 -19 -18 -18 -18 -18 -18 -18 -17 -17 -17 -17 -17 -17 -17 -17 -17 -17
-29 -29 -28 -28 -28 -27 -26 -26 -26 -25 -25 -25 -23 -23 -22 -20 -21 -21 -20 -20 -21 -20 -20 -21 -20 -20 -20 -20 -19 -19 -18 -18 -18 -18 -18 -18 -18 -18 -18 -18 -18 -17 -18 -18 -17
-29 -29 -28 -28 -28 -27 -27 -26 -26 -25 -25 -25 -24 -23 -22 -21 -22 -21 -20 -21 -21 -21 -20 -20 -20 -21 -21 -20 -19 -19 -18 -19 -19 -19 -19 -19 -18 -18 -18 -18 -18 -18 -19 -18 -17
-29 -29 -28 -28 -28 -27 -26 -26 -26 -26 -25 -25 -25 -24 -23 -23 -22 -21 -21 -22 -22 -21 -21 -21 -21 -21 -21 -21 -20 -20 -19 -19 -19 -19 -19 -20 -17 -19 -19 -19 -19 -20 -20 -20 -18
-29 -29 -29 -28 -28 -27 -27 -26 -26 -26 -24 -25 -24 -23 -23 -22 -22 -22 -22 -22 -22 -22 -22 -21 -21 -21 -21 -21 -21 -21 -21 -21 -20 -21 -20 -19 -19 -20 -20 -20 -19 -19 -20 -20 -18
-28 -28 -28 -28 -28 -27 -27 -26 -26 -26 -24 -25 -24 -24 -23 -22 -22 -22 -22 -22 -22 -22 -21 -22 -22 -21 -22 -21 -22 -22 -21 -21 -21 -20 -20 -19 -20 -20 -20 -20 -19 -20 -21 -20 -18
-28 -27 -27 -27 -27 -27 -27 -26 -26 -25 -25 -24 -24 -23 -23 -22 -21 -21 -21 -21 -21 -22 -22 -22 -22 -22 -22 -22 -22 -22 -21 -22 -21 -21 -21 -19 -20 -20 -21 -21 -20 -20 -19 -20 -20
-27 -27 -27 -27 -27 -27 -27 -26 -26 -25 -25 -25 -23 -23 -22 -22 -22 -22 -22 -22 -22 -22 -22 -22 -22 -22 -22 -22 -22 -22 -21 -21 -21 -21 -21 -21 -20 -21 -21 -21 -20 -20 -20 -19 -19

GFSSW_500_temp_138.txt.gz
Temp
-10 -10 -10 -10 -10 -10 -10 -10 -10 -10 -10 -10 -10 -10 -10 -10 -10 -10 -10 -10 -10 -10 -10 -9 -9 -9 -9 -9 -9 -9 -9 -9 -9 -9 -9 -9 -9 -9 -10 -9 -9 -10 -10 -9 -9
-11 -11 -11 -11 -10 -10 -11 -10 -10 -10 -10 -10 -10 -10 -10 -10 -10 -10 -11 -10 -10 -10 -10 -10 -10 -10 -10 -10 -10 -10 -10 -10 -10 -9 -9 -9 -9 -9 -10 -9 -9 -10 -10 -10 -9
-12 -12 -12 -11 -11 -11 -11 -11 -11 -11 -11 -10 -10 -11 -11 -10 -10 -11 -10 -11 -11 -11 -10 -10 -10 -10 -10 -10 -10 -10 -10 -10 -10 -9 -9 -9 -10 -10 -10 -10 -9 -10 -10 -10 -11
-13 -13 -13 -13 -12 -11 -11 -11 -11 -11 -11 -11 -11 -11 -11 -11 -11 -10 -11 -11 -11 -11 -11 -11 -11 -10 -10 -10 -11 -10 -10 -10 -11 -10 -9 -10 -10 -10 -10 -10 -10 -10 -10 -10 -11
-14 -14 -14 -13 -13 -13 -12 -12 -12 -12 -12 -11 -11 -11 -11 -11 -11 -11 -11 -11 -11 -11 -11 -11 -11 -11 -11 -11 -10 -10 -10 -10 -10 -10 -10 -10 -10 -10 -10 -11 -10 -10 -10 -11 -11
-15 -15 -14 -14 -15 -14 -14 -13 -13 -12 -12 -12 -12 -12 -11 -11 -11 -11 -11 -11 -11 -11 -11 -11 -11 -11 -11 -11 -11 -10 -10 -10 -11 -11 -11 -10 -11 -10 -11 -12 -11 -11 -11 -11 -11
-15 -15 -15 -14 -14 -14 -14 -13 -13 -13 -13 -13 -13 -12 -11 -11 -11 -11 -11 -12 -12 -12 -12 -12 -11 -11 -11 -11 -10 -11 -11 -11 -10 -12 -11 -11 -10 -11 -11 -12 -11 -11 -11 -11 -12
-15 -15 -16 -15 -14 -14 -15 -14 -14 -14 -13 -13 -13 -12 -12 -12 -12 -11 -11 -12 -12 -12 -12 -12 -11 -11 -11 -11 -11 -11 -11 -10 -11 -11 -12 -12 -9 -12 -12 -12 -12 -12 -12 -12 -12
-16 -16 -16 -16 -16 -15 -16 -16 -15 -15 -14 -14 -13 -13 -13 -12 -12 -12 -12 -12 -13 -12 -12 -12 -12 -12 -11 -11 -11 -11 -11 -11 -12 -12 -13 -12 -10 -11 -12 -12 -12 -12 -12 -12 -12
-16 -16 -16 -16 -16 -16 -16 -16 -16 -16 -15 -15 -14 -13 -12 -13 -13 -13 -13 -13 -13 -13 -13 -12 -12 -12 -12 -12 -11 -12 -11 -12 -12 -12 -13 -12 -11 -12 -12 -12 -13 -13 -13 -13 -13
-16 -16 -16 -16 -17 -16 -16 -16 -16 -16 -16 -15 -14 -14 -14 -13 -13 -14 -13 -13 -13 -13 -12 -12 -12 -12 -12 -12 -12 -12 -12 -12 -12 -13 -13 -13 -12 -12 -12 -13 -13 -13 -13 -13 -13
-17 -17 -17 -17 -17 -17 -17 -17 -17 -16 -16 -16 -16 -14 -14 -14 -13 -14 -14 -14 -13 -13 -13 -13 -12 -12 -13 -13 -13 -13 -13 -12 -13 -14 -15 -14 -12 -13 -13 -13 -14 -14 -14 -14 -14
-19 -18 -18 -18 -18 -17 -17 -17 -17 -17 -17 -17 -16 -15 -15 -14 -14 -14 -15 -14 -14 -14 -14 -14 -13 -14 -14 -13 -13 -13 -13 -14 -15 -16 -16 -15 -12 -14 -14 -14 -14 -14 -14 -14 -14
-20 -19 -19 -19 -19 -18 -18 -18 -18 -18 -18 -17 -17 -15 -15 -15 -14 -14 -15 -15 -15 -14 -15 -15 -14 -14 -14 -13 -15 -14 -16 -16 -16 -17 -16 -16 -13 -13 -14 -15 -15 -15 -14 -14 -14
-20 -20 -20 -19 -19 -19 -19 -19 -19 -19 -20 -18 -17 -16 -16 -16 -15 -15 -16 -17 -15 -15 -16 -14 -14 -15 -14 -15 -16 -16 -17 -18 -18 -18 -18 -16 -17 -14 -15 -15 -15 -15 -15 -15 -15
-21 -21 -21 -20 -19 -19 -19 -20 -21 -21 -22 -19 -17 -17 -16 -16 -15 -15 -16 -17 -17 -16 -16 -15 -15 -15 -15 -16 -17 -17 -18 -19 -19 -19 -18 -16 -18 -15 -16 -15 -16 -15 -15 -15 -15
-21 -21 -21 -21 -20 -20 -21 -21 -22 -22 -21 -19 -17 -17 -17 -16 -17 -16 -16 -17 -17 -17 -16 -16 -16 -16 -16 -16 -18 -18 -19 -19 -19 -19 -18 -18 -18 -16 -16 -16 -16 -16 -16 -16 -16
-21 -21 -21 -21 -21 -21 -21 -22 -22 -21 -20 -18 -18 -17 -17 -17 -17 -17 -18 -18 -18 -18 -18 -18 -17 -17 -17 -17 -18 -19 -20 -19 -19 -19 -19 -19 -18 -16 -17 -17 -17 -17 -16 -17 -17
-22 -22 -22 -21 -21 -21 -22 -23 -21 -20 -20 -20 -20 -19 -18 -18 -18 -19 -19 -18 -18 -18 -19 -18 -18 -18 -18 -19 -19 -19 -19 -19 -20 -20 -20 -19 -17 -18 -18 -17 -17 -17 -18 -18 -18
-24 -23 -22 -22 -22 -22 -24 -23 -21 -21 -20 -21 -20 -20 -19 -19 -19 -19 -19 -18 -18 -19 -19 -19 -19 -19 -19 -19 -19 -20 -20 -20 -20 -21 -19 -19 -18 -18 -18 -18 -17 -17 -18 -17 -17
-28 -28 -25 -24 -24 -26 -26 -24 -22 -22 -22 -22 -21 -21 -20 -20 -20 -20 -19 -19 -19 -19 -20 -20 -20 -19 -20 -19 -19 -20 -20 -20 -20 -20 -20 -19 -19 -19 -19 -18 -18 -18 -18 -19 -19
-29 -29 -28 -28 -28 -28 -28 -26 -24 -24 -24 -25 -24 -23 -22 -21 -20 -21 -21 -20 -20 -20 -20 -21 -22 -21 -20 -20 -20 -20 -20 -20 -20 -20 -20 -19 -19 -20 -19 -19 -19 -20 -20 -20 -20
-29 -29 -29 -29 -29 -29 -29 -28 -27 -26 -26 -26 -25 -25 -24 -23 -23 -23 -22 -21 -22 -21 -21 -20 -21 -21 -21 -21 -21 -20 -20 -20 -20 -20 -20 -20 -20 -19 -20 -19 -19 -19 -19 -20 -20
-30 -30 -30 -29 -29 -29 -28 -28 -28 -28 -27 -27 -26 -26 -25 -24 -24 -23 -23 -23 -22 -22 -22 -22 -22 -22 -21 -21 -20 -21 -21 -20 -20 -21 -20 -19 -20 -20 -21 -20 -20 -20 -20 -20 -20
-30 -30 -30 -30 -29 -29 -29 -28 -28 -27 -28 -27 -26 -26 -25 -24 -24 -24 -24 -23 -22 -22 -23 -23 -22 -22 -22 -22 -21 -21 -20 -20 -20 -20 -20 -20 -21 -21 -20 -20 -20 -20 -20 -20 -20
-30 -30 -30 -30 -30 -29 -29 -29 -28 -28 -27 -26 -26 -26 -25 -25 -25 -24 -24 -22 -22 -22 -22 -22 -22 -22 -22 -21 -21 -21 -20 -21 -21 -21 -21 -20 -21 -21 -21 -20 -20 -20 -20 -20 -20
-30 -30 -30 -30 -30 -29 -29 -28 -28 -28 -28 -27 -26 -27 -25 -24 -24 -24 -24 -24 -22 -23 -23 -23 -22 -22 -22 -21 -21 -21 -20 -21 -21 -21 -21 -20 -20 -21 -21 -21 -21 -20 -20 -20 -21

GFSSW_500_temp_141.txt.gz
Temp
-11 -11 -11 -11 -10 -10 -10 -10 -10 -10 -10 -10 -10 -10 -10 -10 -10 -10 -10 -10 -10 -10 -9 -9 -9 -9 -9 -9 -9 -9 -9 -9 -9 -9 -9 -9 -9 -9 -9 -9 -9 -9 -9 -9 -9
-11 -11 -11 -11 -11 -11 -11 -10 -10 -10 -10 -10 -10 -10 -10 -10 -10 -10 -10 -10 -10 -10 -10 -9 -10 -10 -9 -9 -9 -9 -9 -9 -9 -9 -9 -9 -9 -9 -9 -9 -9 -9 -9 -9 -9
-11 -12 -11 -11 -12 -11 -11 -11 -11 -11 -11 -10 -10 -10 -10 -10 -10 -10 -10 -10 -10 -10 -10 -10 -10 -10 -10 -10 -10 -10 -10 -9 -9 -9 -9 -9 -9 -9 -9 -9 -9 -9 -10 -10 -9
-12 -12 -12 -12 -12 -11 -11 -11 -11 -11 -11 -11 -11 -11 -11 -11 -10 -10 -10 -11 -10 -10 -10 -10 -10 -10 -11 -10 -10 -10 -10 -10 -10 -9 -9 -9 -10 -9 -9 -10 -10 -10 -10 -10 -10
-13 -13 -13 -12 -12 -12 -12 -11 -12 -12 -11 -11 -11 -11 -11 -11 -11 -11 -11 -11 -11 -11 -11 -10 -10 -10 -11 -10 -10 -10 -10 -10 -10 -10 -10 -10 -9 -9 -10 -10 -10 -9 -10 -10 -10
-15 -14 -13 -13 -13 -12 -12 -12 -12 -12 -12 -12 -11 -11 -11 -11 -12 -11 -11 -11 -11 -11 -11 -11 -11 -11 -10 -10 -10 -10 -10 -10 -10 -11 -10 -10 -9 -9 -11 -11 -10 -9 -9 -10 -11
-15 -15 -14 -14 -14 -13 -13 -13 -14 -13 -12 -12 -12 -12 -11 -12 -12 -11 -11 -11 -11 -11 -11 -11 -11 -11 -10 -11 -10 -10 -10 -10 -10 -11 -10 -10 -9 -10 -11 -11 -10 -10 -10 -10 -11
-16 -16 -15 -16 -14 -14 -14 -15 -14 -15 -14 -13 -13 -12 -11 -12 -12 -11 -12 -12 -12 -12 -12 -12 -11 -11 -11 -11 -10 -11 -10 -10 -11 -11 -11 -10 -9 -11 -11 -10 -10 -11 -11 -11 -12
-16 -16 -16 -16 -16 -16 -15 -14 -15 -16 -15 -14 -13 -13 -13 -12 -12 -12 -12 -13 -13 -12 -12 -12 -12 -11 -11 -11 -11 -10 -10 -10 -11 -11 -11 -11 -9 -10 -11 -10 -11 -11 -12 -12 -13
-17 -17 -16 -16 -16 -15 -16 -16 -16 -16 -15 -15 -14 -14 -12 -13 -13 -13 -13 -13 -13 -13 -13 -12 -12 -12 -11 -11 -10 -11 -11 -11 -11 -11 -11 -11 -10 -10 -10 -10 -11 -11 -12 -13 -13
-18 -18 -18 -17 -17 -16 -16 -16 -16 -16 -15 -15 -15 -14 -14 -14 -14 -14 -13 -13 -13 -13 -13 -13 -12 -12 -12 -12 -12 -11 -11 -11 -11 -12 -11 -11 -10 -10 -10 -10 -11 -12 -13 -13 -13
-18 -18 -18 -18 -18 -18 -17 -16 -16 -16 -16 -16 -15 -15 -14 -14 -14 -14 -14 -14 -14 -13 -14 -13 -12 -12 -12 -12 -12 -12 -12 -12 -12 -12 -12 -12 -10 -10 -10 -11 -11 -12 -13 -13 -14
-19 -19 -19 -19 -19 -18 -17 -17 -17 -16 -17 -17 -16 -15 -15 -14 -14 -14 -14 -14 -14 -14 -14 -14 -13 -13 -13 -12 -12 -12 -12 -13 -13 -13 -13 -12 -10 -10 -11 -11 -12 -13 -14 -14 -14
-20 -20 -21 -21 -19 -18 -18 -18 -18 -18 -18 -17 -16 -15 -15 -14 -15 -15 -15 -14 -14 -14 -14 -14 -13 -13 -13 -12 -13 -12 -13 -14 -14 -14 -12 -14 -11 -10 -11 -12 -13 -14 -15 -15 -15
-21 -21 -21 -21 -19 -19 -20 -20 -20 -20 -20 -18 -17 -16 -16 -15 -15 -15 -16 -16 -15 -15 -15 -14 -14 -14 -13 -13 -14 -14 -15 -15 -15 -15 -13 -13 -14 -10 -11 -12 -14 -16 -15 -15 -16
-23 -23 -23 -21 -20 -20 -21 -22 -22 -22 -21 -18 -17 -15 -16 -15 -15 -15 -16 -16 -15 -15 -15 -14 -14 -14 -14 -14 -14 -14 -14 -15 -16 -16 -14 -14 -15 -12 -12 -14 -15 -16 -16 -16 -16
-22 -22 -23 -23 -21 -22 -22 -23 -23 -23 -21 -17 -15 -16 -16 -17 -17 -16 -17 -16 -16 -16 -15 -15 -14 -14 -14 -14 -14 -15 -16 -17 -16 -16 -15 -15 -16 -14 -14 -16 -16 -17 -17 -17 -17
-22 -23 -22 -22 -22 -22 -22 -23 -24 -22 -20 -18 -16 -17 -17 -18 -17 -17 -17 -16 -16 -16 -16 -16 -15 -15 -15 -15 -16 -17 -18 -18 -18 -17 -17 -17 -16 -14 -17 -17 -17 -17 -18 -17 -17
-22 -23 -23 -22 -22 -22 -23 -23 -23 -21 -20 -20 -19 -19 -19 -18 -18 -18 -17 -17 -17 -17 -17 -16 -16 -16 -16 -16 -17 -17 -17 -18 -20 -19 -20 -18 -17 -16 -18 -18 -17 -18 -18 -18 -17
-23 -23 -23 -22 -22 -23 -24 -23 -22 -21 -21 -21 -20 -19 -19 -18 -19 -18 -18 -16 -17 -17 -17 -17 -17 -17 -17 -17 -18 -18 -18 -19 -20 -20 -20 -19 -19 -18 -19 -19 -18 -18 -19 -18 -18
-24 -24 -23 -23 -23 -24 -24 -23 -22 -22 -21 -21 -21 -20 -19 -19 -19 -19 -18 -18 -18 -18 -18 -19 -18 -18 -18 -17 -18 -19 -19 -20 -20 -20 -20 -20 -20 -19 -20 -19 -18 -18 -18 -18 -19
-28 -27 -25 -24 -25 -26 -25 -23 -22 -22 -22 -22 -21 -21 -20 -20 -19 -20 -19 -18 -18 -19 -19 -19 -20 -19 -18 -18 -19 -20 -20 -21 -21 -21 -21 -20 -19 -20 -19 -19 -19 -19 -19 -18 -18
-29 -29 -28 -28 -28 -28 -27 -26 -24 -23 -23 -22 -21 -21 -20 -20 -20 -20 -19 -19 -19 -19 -19 -20 -21 -21 -21 -20 -20 -20 -20 -21 -21 -21 -21 -21 -19 -20 -20 -19 -19 -19 -20 -19 -19
-29 -29 -29 -29 -29 -28 -28 -28 -27 -24 -24 -24 -23 -23 -22 -21 -21 -20 -20 -20 -20 -20 -20 -22 -22 -22 -21 -21 -21 -20 -21 -21 -21 -21 -20 -20 -20 -20 -20 -20 -20 -20 -20 -20 -20
-30 -30 -29 -29 -29 -29 -29 -29 -29 -28 -27 -27 -26 -24 -23 -22 -21 -20 -21 -21 -21 -21 -22 -22 -22 -22 -21 -22 -22 -21 -21 -21 -21 -21 -21 -20 -20 -21 -21 -21 -20 -21 -21 -20 -20
-30 -30 -30 -29 -29 -29 -29 -28 -28 -29 -28 -28 -27 -26 -27 -25 -23 -23 -23 -23 -22 -23 -23 -22 -22 -22 -22 -22 -22 -22 -22 -21 -21 -21 -21 -21 -20 -21 -20 -21 -21 -21 -20 -20 -20
-30 -30 -30 -30 -30 -30 -29 -28 -28 -28 -29 -28 -27 -27 -27 -26 -26 -25 -25 -25 -24 -24 -24 -23 -21 -21 -22 -22 -22 -22 -21 -21 -21 -21 -21 -21 -20 -21 -21 -21 -21 -20 -20 -21 -20

GFSSW_500_temp_144.txt.gz
Temp
-12 -12 -12 -12 -11 -11 -11 -11 -10 -10 -10 -10 -10 -10 -10 -10 -10 -10 -10 -10 -10 -10 -10 -10 -10 -10 -10 -10 -9 -9 -9 -9 -9 -8 -8 -8 -9 -9 -8 -8 -8 -8 -8 -8 -8
-12 -12 -12 -12 -11 -11 -11 -11 -11 -10 -10 -10 -10 -10 -10 -10 -10 -10 -10 -10 -10 -10 -10 -10 -10 -10 -10 -10 -10 -9 -9 -9 -9 -9 -9 -9 -9 -9 -9 -8 -8 -9 -9 -9 -8
-14 -13 -12 -12 -12 -11 -11 -11 -11 -11 -11 -10 -10 -10 -10 -10 -10 -10 -10 -11 -10 -10 -10 -10 -10 -10 -10 -10 -10 -10 -10 -9 -9 -9 -9 -9 -9 -9 -9 -9 -9 -9 -9 -9 -9
-14 -14 -13 -12 -12 -12 -12 -12 -11 -11 -11 -11 -11 -11 -11 -11 -11 -11 -11 -11 -10 -11 -11 -11 -11 -10 -10 -10 -10 -10 -10 -10 -9 -9 -9 -9 -9 -9 -9 -9 -9 -9 -9 -9 -9
-14 -14 -14 -13 -12 -13 -12 -12 -12 -12 -11 -11 -11 -11 -11 -11 -11 -11 -11 -11 -11 -11 -11 -11 -11 -10 -10 -10 -10 -10 -10 -10 -10 -10 -10 -9 -9 -9 -10 -9 -9 -9 -9 -9 -9
-16 -16 -15 -14 -13 -13 -13 -13 -12 -12 -12 -12 -11 -11 -11 -11 -11 -11 -11 -11 -11 -11 -11 -11 -11 -11 -10 -10 -10 -10 -10 -10 -10 -11 -10 -10 -9 -9 -11 -10 -10 -9 -9 -9 -10
-17 -17 -16 -16 -14 -14 -13 -13 -13 -12 -13 -13 -12 -12 -11 -12 -12 -11 -11 -11 -12 -11 -11 -11 -11 -11 -11 -10 -10 -10 -10 -10 -11 -11 -10 -9 -9 -10 -11 -10 -10 -10 -9 -9 -9
-16 -17 -17 -16 -15 -15 -14 -14 -14 -13 -13 -12 -12 -12 -12 -12 -12 -11 -12 -12 -12 -12 -12 -12 -11 -11 -11 -11 -11 -11 -10 -11 -11 -11 -10 -10 -9 -11 -10 -10 -10 -10 -10 -10 -10
-17 -17 -17 -17 -17 -15 -15 -15 -15 -15 -14 -14 -13 -12 -12 -12 -12 -12 -12 -12 -12 -12 -12 -12 -12 -11 -11 -11 -11 -10 -11 -11 -11 -11 -11 -10 -9 -10 -10 -10 -10 -10 -10 -10 -11
-17 -17 -16 -17 -17 -17 -16 -16 -16 -15 -15 -14 -14 -13 -12 -12 -13 -13 -13 -13 -13 -13 -12 -12 -12 -12 -11 -11 -11 -11 -11 -11 -11 -11 -11 -11 -10 -10 -10 -10 -10 -10 -11 -11 -11
-17 -18 -18 -17 -17 -17 -17 -16 -16 -15 -14 -15 -14 -14 -13 -14 -14 -14 -14 -13 -13 -13 -13 -13 -12 -12 -12 -12 -12 -12 -12 -11 -12 -11 -12 -11 -10 -10 -10 -10 -10 -10 -11 -11 -11
-19 -18 -18 -18 -17 -17 -17 -16 -16 -16 -16 -16 -14 -14 -14 -14 -14 -15 -15 -14 -14 -13 -13 -13 -13 -13 -13 -13 -13 -13 -12 -12 -12 -12 -11 -11 -10 -10 -11 -11 -11 -11 -11 -12 -11
-19 -19 -18 -18 -19 -18 -16 -17 -17 -16 -16 -16 -15 -14 -14 -14 -15 -14 -15 -15 -14 -14 -14 -14 -13 -13 -13 -13 -13 -13 -13 -12 -12 -12 -12 -11 -10 -10 -11 -11 -12 -12 -12 -12 -11
-20 -19 -19 -21 -19 -18 -18 -18 -18 -18 -18 -16 -16 -15 -15 -15 -15 -15 -15 -15 -15 -15 -15 -14 -14 -13 -13 -13 -13 -13 -13 -13 -13 -13 -12 -12 -10 -10 -11 -11 -13 -13 -13 -12 -12
-23 -20 -21 -20 -19 -19 -20 -21 -22 -23 -21 -19 -17 -15 -16 -16 -15 -16 -16 -16 -15 -16 -15 -15 -14 -14 -14 -14 -14 -13 -14 -14 -13 -13 -13 -12 -12 -10 -11 -12 -13 -14 -14 -13 -13
-23 -23 -22 -21 -20 -20 -22 -22 -23 -23 -20 -17 -17 -15 -16 -16 -15 -16 -17 -16 -16 -16 -15 -15 -15 -15 -14 -14 -14 -14 -14 -14 -14 -15 -13 -13 -13 -11 -12 -13 -13 -14 -14 -13 -14
-23 -23 -23 -22 -20 -22 -24 -24 -24 -24 -19 -17 -16 -16 -16 -16 -16 -17 -18 -17 -17 -17 -16 -16 -16 -16 -15 -15 -15 -15 -15 -15 -16 -15 -14 -14 -14 -12 -12 -13 -14 -14 -14 -15 -15
-24 -25 -25 -23 -22 -23 -24 -25 -25 -21 -18 -17 -17 -18 -18 -18 -17 -17 -17 -17 -16 -16 -16 -16 -15 -16 -15 -16 -16 -16 -16 -16 -16 -16 -15 -15 -13 -12 -13 -14 -14 -14 -15 -16 -17
-24 -24 -25 -25 -24 -25 -25 -25 -24 -20 -21 -19 -19 -19 -18 -18 -19 -19 -17 -17 -17 -18 -18 -17 -17 -16 -16 -17 -17 -17 -16 -18 -18 -17 -17 -15 -14 -14 -14 -15 -15 -15 -16 -17 -18
-24 -24 -24 -25 -25 -25 -25 -25 -25 -22 -20 -20 -21 -20 -19 -19 -19 -19 -19 -16 -17 -18 -18 -18 -18 -17 -17 -16 -17 -17 -17 -18 -18 -18 -18 -16 -15 -15 -16 -16 -17 -17 -17 -18 -18
-24 -24 -23 -24 -24 -26 -26 -25 -25 -24 -23 -22 -21 -20 -19 -20 -20 -20 -19 -18 -18 -18 -19 -19 -19 -18 -18 -17 -17 -18 -18 -18 -19 -19 -20 -19 -16 -16 -17 -18 -18 -18 -18 -18 -19
-25 -24 -24 -24 -25 -26 -25 -24 -24 -23 -23 -23 -22 -22 -21 -21 -21 -20 -19 -19 -19 -19 -19 -20 -21 -20 -19 -18 -18 -18 -18 -19 -19 -20 -20 -20 -16 -18 -19 -19 -19 -19 -19 -19 -18
-26 -25 -24 -24 -25 -26 -25 -24 -24 -24 -23 -22 -22 -22 -21 -21 -21 -21 -20 -19 -20 -20 -19 -21 -21 -20 -19 -18 -18 -17 -17 -19 -20 -21 -19 -21 -17 -19 -20 -20 -20 -20 -20 -19 -20
-29 -29 -28 -28 -27 -27 -26 -25 -24 -24 -23 -23 -23 -22 -22 -22 -21 -21 -20 -20 -20 -20 -20 -21 -21 -20 -19 -19 -19 -19 -19 -20 -21 -21 -20 -21 -20 -20 -21 -21 -20 -20 -20 -20 -20
-29 -28 -29 -29 -28 -28 -28 -27 -26 -25 -24 -24 -23 -22 -22 -22 -21 -21 -21 -21 -20 -20 -21 -22 -22 -21 -19 -20 -20 -20 -20 -21 -20 -20 -21 -20 -21 -21 -21 -21 -21 -20 -20 -20 -20
-29 -28 -29 -29 -29 -29 -29 -28 -28 -28 -26 -25 -24 -23 -23 -22 -21 -21 -21 -22 -21 -22 -23 -23 -21 -23 -22 -21 -22 -22 -22 -19 -21 -20 -21 -21 -21 -21 -21 -21 -21 -21 -20 -21 -21
-29 -29 -28 -29 -29 -29 -29 -29 -28 -28 -28 -28 -27 -27 -26 -24 -24 -24 -24 -23 -23 -24 -24 -24 -24 -24 -23 -23 -23 -23 -19 -21 -21 -21 -21 -21 -21 -22 -22 -21 -21 -21 -21 -21 -20

GFSSW_500_temp_147.txt.gz
Temp
-14 -13 -14 -13 -13 -13 -12 -12 -12 -11 -10 -10 -10 -10 -10 -10 -10 -10 -10 -9 -9 -9 -9 -9 -10 -10 -10 -10 -10 -10 -9 -9 -9 -8 -9 -9 -8 -8 -8 -8 -8 -8 -8 -8 -8
-15 -14 -14 -13 -13 -13 -13 -12 -12 -12 -11 -10 -10 -10 -10 -10 -10 -10 -10 -10 -10 -10 -10 -10 -10 -10 -10 -10 -10 -10 -10 -10 -9 -9 -9 -9 -9 -8 -8 -8 -8 -8 -8 -8 -8
-15 -15 -14 -14 -13 -13 -13 -13 -13 -12 -12 -11 -11 -10 -10 -10 -10 -10 -10 -10 -10 -10 -10 -10 -10 -10 -10 -10 -10 -10 -10 -9 -9 -9 -9 -9 -9 -9 -9 -9 -8 -8 -8 -8 -8
-16 -16 -14 -14 -14 -14 -13 -13 -13 -13 -12 -12 -11 -11 -11 -10 -10 -10 -10 -10 -10 -10 -10 -10 -11 -11 -11 -10 -10 -10 -10 -9 -9 -9 -9 -9 -9 -9 -10 -10 -9 -9 -9 -9 -9
-16 -16 -15 -14 -15 -14 -14 -13 -13 -13 -12 -11 -12 -11 -11 -11 -11 -11 -11 -11 -11 -11 -11 -11 -11 -11 -11 -11 -10 -10 -10 -10 -10 -10 -10 -10 -9 -10 -10 -9 -9 -9 -9 -9 -9
-16 -15 -16 -15 -15 -14 -14 -14 -13 -12 -12 -12 -12 -11 -11 -11 -11 -11 -11 -11 -11 -11 -11 -11 -11 -11 -11 -11 -11 -11 -10 -10 -10 -10 -10 -9 -9 -10 -10 -9 -9 -9 -9 -9 -9
-18 -17 -16 -15 -15 -14 -14 -15 -14 -13 -12 -12 -12 -12 -11 -11 -11 -11 -11 -11 -11 -11 -11 -11 -11 -11 -11 -11 -11 -11 -11 -11 -11 -10 -10 -9 -9 -10 -10 -10 -10 -9 -9 -9 -10
-17 -17 -17 -16 -16 -15 -14 -15 -14 -13 -13 -13 -12 -12 -12 -12 -11 -12 -11 -11 -12 -11 -11 -11 -11 -11 -11 -11 -11 -11 -11 -11 -11 -11 -10 -10 -10 -11 -10 -10 -10 -10 -10 -10 -10
-16 -17 -17 -17 -16 -16 -16 -16 -15 -15 -14 -14 -13 -13 -12 -12 -12 -12 -12 -12 -12 -12 -12 -12 -11 -11 -11 -11 -11 -11 -11 -11 -12 -12 -11 -11 -10 -11 -11 -11 -10 -10 -10 -10 -10
-16 -16 -18 -17 -18 -17 -16 -16 -17 -15 -14 -14 -13 -13 -13 -13 -13 -12 -12 -12 -12 -12 -12 -12 -12 -12 -11 -11 -12 -12 -12 -11 -11 -12 -11 -11 -10 -11 -11 -10 -11 -11 -11 -11 -11
-16 -16 -17 -18 -18 -18 -17 -17 -17 -16 -15 -15 -14 -14 -13 -14 -14 -14 -13 -13 -13 -13 -12 -12 -12 -12 -12 -12 -12 -12 -12 -12 -12 -12 -12 -12 -11 -11 -11 -11 -11 -11 -11 -11 -11
-17 -17 -16 -17 -18 -17 -17 -18 -18 -17 -17 -16 -16 -15 -14 -14 -14 -14 -14 -14 -14 -13 -13 -13 -13 -13 -13 -13 -12 -12 -12 -12 -12 -12 -12 -11 -11 -11 -11 -11 -11 -11 -11 -11 -11
-18 -18 -18 -18 -19 -18 -18 -17 -18 -17 -17 -17 -16 -16 -15 -16 -15 -14 -14 -15 -14 -13 -13 -14 -13 -13 -13 -13 -13 -13 -12 -12 -13 -13 -12 -11 -11 -11 -11 -12 -12 -12 -11 -11 -11
-19 -19 -19 -18 -18 -19 -18 -18 -17 -18 -17 -17 -16 -16 -15 -16 -15 -15 -15 -15 -14 -14 -14 -14 -14 -14 -14 -14 -13 -13 -13 -13 -13 -13 -12 -12 -11 -11 -11 -12 -12 -12 -12 -11 -11
-21 -21 -20 -19 -18 -19 -19 -19 -19 -18 -18 -18 -17 -15 -16 -16 -15 -15 -16 -15 -15 -15 -15 -15 -15 -15 -15 -15 -15 -14 -14 -14 -14 -13 -13 -13 -13 -11 -12 -12 -12 -12 -12 -12 -12
-22 -22 -22 -20 -20 -20 -20 -20 -20 -20 -18 -18 -17 -16 -17 -16 -16 -17 -16 -16 -16 -16 -16 -15 -15 -15 -15 -15 -15 -15 -15 -15 -15 -15 -14 -13 -14 -11 -12 -12 -13 -13 -13 -12 -12
-23 -23 -22 -21 -20 -21 -22 -21 -22 -20 -18 -17 -17 -16 -17 -17 -17 -18 -17 -17 -17 -17 -17 -17 -16 -16 -16 -16 -16 -16 -16 -16 -16 -16 -15 -14 -14 -12 -13 -13 -13 -13 -13 -13 -13
-24 -24 -23 -23 -22 -23 -23 -23 -24 -19 -18 -17 -18 -18 -18 -18 -18 -18 -18 -18 -17 -17 -17 -17 -16 -17 -17 -17 -17 -17 -18 -18 -18 -17 -16 -15 -13 -13 -13 -13 -13 -13 -13 -13 -13
-25 -24 -25 -23 -24 -24 -23 -24 -21 -18 -19 -19 -20 -19 -19 -18 -18 -19 -19 -19 -18 -18 -18 -18 -18 -18 -18 -18 -18 -18 -17 -18 -18 -18 -17 -15 -14 -14 -14 -14 -14 -14 -14 -14 -14
-25 -25 -25 -23 -24 -24 -25 -24 -22 -21 -21 -20 -20 -20 -20 -19 -19 -19 -19 -18 -19 -19 -19 -19 -19 -18 -18 -18 -18 -18 -18 -18 -18 -18 -17 -16 -14 -13 -14 -14 -14 -15 -15 -15 -15
-26 -26 -25 -25 -25 -26 -25 -25 -23 -23 -23 -21 -21 -21 -20 -20 -20 -20 -19 -19 -19 -20 -20 -20 -20 -19 -18 -18 -18 -18 -18 -18 -19 -19 -19 -16 -14 -14 -15 -15 -16 -16 -16 -16 -17
-27 -26 -26 -25 -26 -25 -25 -25 -24 -23 -22 -22 -21 -21 -21 -22 -22 -21 -20 -20 -20 -20 -20 -21 -21 -19 -18 -18 -18 -18 -18 -19 -19 -18 -18 -17 -14 -15 -15 -16 -17 -17 -17 -17 -18
-27 -27 -27 -26 -26 -25 -26 -25 -25 -24 -23 -22 -22 -22 -21 -21 -22 -21 -21 -21 -21 -21 -21 -21 -21 -20 -18 -18 -18 -18 -18 -19 -19 -19 -17 -20 -14 -16 -17 -18 -18 -18 -18 -19 -19
-28 -27 -27 -27 -27 -26 -26 -25 -25 -25 -25 -24 -23 -23 -23 -22 -22 -22 -21 -21 -21 -21 -22 -23 -22 -20 -19 -19 -19 -18 -19 -20 -20 -20 -18 -18 -17 -16 -18 -19 -20 -20 -19 -20 -20
-29 -28 -28 -27 -27 -26 -25 -26 -26 -25 -25 -25 -24 -23 -23 -23 -23 -22 -22 -22 -22 -22 -22 -23 -22 -21 -20 -20 -20 -20 -19 -19 -19 -19 -21 -17 -20 -17 -19 -19 -20 -20 -21 -21 -21
-29 -29 -29 -27 -28 -27 -27 -27 -26 -26 -25 -25 -24 -24 -23 -23 -23 -23 -23 -23 -23 -22 -22 -23 -22 -23 -20 -21 -22 -21 -20 -19 -20 -19 -20 -19 -18 -20 -20 -21 -21 -22 -22 -21 -21
-30 -29 -29 -28 -28 -28 -27 -27 -26 -26 -26 -26 -26 -26 -25 -24 -25 -25 -25 -24 -23 -23 -23 -24 -24 -24 -21 -23 -24 -23 -18 -20 -20 -20 -21 -21 -18 -22 -21 -21 -22 -22 -21 -21 -21